COSMOS 2491 DEB, 57547

Orbit data source: Space-Track

COSMOS 2491 DEB, 57547 is space debris in LEO originally from a launch on Wed, 25 Dec 2013 UTC launched from the Plesetsk Missile And Space Complex (PKMTR). Debris objects in space refer to the collection of defunct objects orbiting the Earth. Examples of debris include non-operational satellites, rocket bodies, and fragments generated from explosions, collisions, or faulty payload assembly.

Loading next visibility...
Identifier
57547, 2013-076AJ
Orbit
LEO
Country
Flag of CISCIS
Related business
Manufacturer
TsNIIKhM
Mission
Spacecraft
Bus & Motor
Unknown
Mass
Unknown
Launch date (UTC)
2013-12-25 (12 years ago)
Launch vehicle
Unknown
Launch site
Plesetsk Missile And Space Complex (PKMTR)
Object type
Payload
Rocket body
Debris
Shape & HBR
Unknown shape, 0.1 m
Radar Cross Section
Small (<0.1 m²)

Expand to show TLE details & history
Last TLE update: 1 week ago

TLE from 1 week ago
0 COSMOS 2491 DEB
1 57547U 13076AJ  26165.23504198  .00001036  00000-0  68108-2 0  9992
2 57547  82.4697 160.6109 0024624  22.4949 337.7208 12.49290708141072
Epoch: 2026-06-14T05:38Z
TLE epoch observation values (Epoch: 2026-06-14T05:38:27.627Z)
Latitude
-0.00002°
Longitude
173.45709°
Altitude
1,452.298 km
Speed
7.144 km/s
True Right ascension
10h 42m 26s
True Declination
0° 00' 00"
Sunlit
Object was in daylight at epoch
Visualization orbit readout
Latitude
Unknown
Longitude
Unknown
Altitude
Unknown
Speed
Unknown
Apparent Right ascension
Unknown
Apparent Declination
Unknown
Sunlit
N/A
Visualization observer readout
Local Sidereal Time
21:43:33
Azimuth
Unknown
Elevation
Unknown
Doppler factor
Unknown
Orbital elements
Apogee altitude
1,484.119 km
Perigee altitude
1,445.494 km
Semi-major axis
7,842.943 km
Eccentricity
0.00246
Inclination
82.4697°
RAAN
160.6109°
Arg. of periapsis
22.4949°
True anomaly
337.61352°
Mean anomaly
337.7208°
Eccentric anomaly
337.66719°
Mean motion
3.12482 °/min
Orbital period
115.21 mins
BSTAR
0.0068108
Loading maneuver chart data...
Computing Atmospheric mass density...
Loading historical data...
Loading historical data...
Loading historical data...
Loading historical data...
Loading historical data...
Loading historical data...
Loading historical data...

Documentation

Showing up to 5 results
|